CW2274 Weather Reports


time (UTC)temp
F
wind
direction
speed
knots
gust
knots
rain 1hr
in
rain 24hr
in
rain mn
in
humidity
%
barometer
mb
20260905200043 96 299 2.6 7.8 0.00 0.00 0.00 33 1016.2
20260905195523 96 310 1.7 5.2 0.00 0.00 0.00 31 1016.2
20260905195017 96 347 0.9 7.0 0.00 0.00 0.00 33 1016.3
20260905194515 95 295 2.6 7.0 0.00 0.00 0.00 33 1016.4
20260905194029 96 287 1.7 7.0 0.00 0.00 0.00 33 1016.4
20260905193523 96 286 3.5 7.8 0.00 0.00 0.00 33 1016.5
20260905193017 95 7 3.5 7.8 0.00 0.00 0.00 32 1016.4
20260905192532 95 13 1.7 6.1 0.00 0.00 0.00 32 1016.5
20260905192026 95 338 1.7 5.2 0.00 0.00 0.00 33 1016.6
20260905191520 95 359 1.7 7.8 0.00 0.00 0.00 33 1016.6
20260905191015 94 258 2.6 7.8 0.00 0.00 0.00 35 1016.7
20260905190513 94 58 2.6 4.3 0.00 0.00 0.00 33 1016.8
20260905190040 94 308 0.9 2.6 0.00 0.00 0.00 34 1016.9
20260905185520 94 303 1.7 6.1 0.00 0.00 0.00 33 1017.1
20260905185014 95 300 1.7 6.1 0.00 0.00 0.00 34 1017.1
20260905184529 93 360 2.6 6.1 0.00 0.00 0.00 34 1017.1
20260905184023 94 23 1.7 6.1 0.00 0.00 0.00 34 1017.2
20260905183518 95 21 1.7 6.1 0.00 0.00 0.00 32 1017.3
20260905183016 94 299 2.6 6.1 0.00 0.00 0.00 34 1017.3
20260905182531 94 287 2.6 7.8 0.00 0.00 0.00 35 1017.3
20260905182027 93 356 3.5 8.7 0.00 0.00 0.00 35 1017.4
20260905181521 92 360 4.3 8.7 0.00 0.00 0.00 36 1017.5
20260905181018 93 305 1.7 7.8 0.00 0.00 0.00 35 1017.5
20260905180514 94 342 1.7 7.8 0.00 0.00 0.00 35 1017.5
20260905180040 94 290 1.7 7.0 0.00 0.00 0.00 36 1017.5
20260905175521 93 291 3.5 7.0 0.00 0.00 0.00 35 1017.6
20260905175020 92 355 2.6 6.1 0.00 0.00 0.00 36 1017.5
20260905174516 92 336 2.6 6.1 0.00 0.00 0.00 37 1017.5
20260905174031 94 352 1.7 6.1 0.00 0.00 0.00 36 1017.7
20260905173526 93 286 1.7 6.1 0.00 0.00 0.00 38 1017.6
20260905173022 94 334 0.9 2.6 0.00 0.00 0.00 38 1017.7
20260905172517 92 335 1.7 3.5 0.00 0.00 0.00 38 1017.6
20260905172013 92 294 0.9 7.0 0.00 0.00 0.00 41 1017.7
20260905171513 91 284 1.7 7.0 0.00 0.00 0.00 39 1017.9
20260905171029 91 2 0.9 3.5 0.00 0.00 0.00 42 1017.8
20260905170525 89 2 0.9 3.5 0.00 0.00 0.00 43 1017.8
20260905170032 90 24 1.7 3.5 0.00 0.00 0.00 44 1017.8
20260905165513 90 54 1.7 3.5 0.00 0.00 0.00 45 1018.0
20260905165028 89 55 1.7 2.6 0.00 0.00 0.00 47 1017.9
20260905164524 88 56 1.7 4.3 0.00 0.00 0.00 46 1017.9
20260905164024 87 58 1.7 4.3 0.00 0.00 0.00 47 1017.9
20260905163520 87 61 2.6 5.2 0.00 0.00 0.00 49 1017.7
20260905163014 88 62 1.7 3.5 0.00 0.00 0.00 49 1017.8
20260905162529 87 63 1.7 3.5 0.00 0.00 0.00 52 1017.8
20260905162025 87 63 1.7 2.6 0.00 0.00 0.00 52 1017.9
20260905161521 88 62 0.9 1.7 0.00 0.00 0.00 50 1017.9
20260905161017 86 63 0.9 2.6 0.00 0.00 0.00 53 1017.9
20260905160516 86 63 0.9 2.6 0.00 0.00 0.00 53 1017.9
20260905160044 85 63 0.9 2.6 0.00 0.00 0.00 53 1018.0
20260905155525 85 63 1.7 2.6 0.00 0.00 0.00 52 1018.0
20260905155021 84 63 1.7 2.6 0.00 0.00 0.00 57 1017.9
20260905154518 84 62 0.9 2.6 0.00 0.00 0.00 57 1017.9
20260905154013 84 62 0.9 2.6 0.00 0.00 0.00 59 1017.9
20260905153529 83 63 0.9 2.6 0.00 0.00 0.00 60 1017.9
20260905153024 83 62 0.9 3.5 0.00 0.00 0.00 59 1018.0
20260905152523 83 63 0.9 3.5 0.00 0.00 0.00 61 1018.0
20260905152019 82 61 1.7 2.6 0.00 0.00 0.00 61 1018.0
20260905151515 83 61 0.9 2.6 0.00 0.00 0.00 61 1018.0
20260905151031 82 61 0.9 3.5 0.00 0.00 0.00 63 1017.9
20260905150526 81 61 0.9 5.2 0.00 0.00 0.00 64 1017.9
20260905150032 80 62 1.7 3.5 0.00 0.00 0.00 64 1017.9
20260905145512 79 62 1.7 5.2 0.00 0.00 0.00 65 1017.8
20260905145031 79 61 1.7 5.2 0.00 0.00 0.00 66 1017.8
20260905144526 80 69 2.6 5.2 0.00 0.00 0.00 64 1017.8
20260905144020 79 68 1.7 5.2 0.00 0.00 0.00 67 1017.9
20260905143516 79 68 2.6 5.2 0.00 0.00 0.00 66 1017.8
20260905143012 79 68 1.7 2.6 0.00 0.00 0.00 66 1017.8
20260905142527 78 68 0.9 3.5 0.00 0.00 0.00 67 1017.7
20260905142023 78 67 1.7 4.3 0.00 0.00 0.00 68 1017.6
20260905141522 78 56 2.6 4.3 0.00 0.00 0.00 69 1017.5
20260905141017 78 55 2.6 4.3 0.00 0.00 0.00 69 1017.5
20260905140531 77 54 2.6 3.5 0.00 0.00 0.00 70 1017.3
20260905140039 77 54 1.7 2.6 0.00 0.00 0.00 69 1017.5
20260905135519 77 54 0.9 1.7 0.00 0.00 0.00 70 1017.5
20260905135014 76 54 0.9 1.7 0.00 0.00 0.00 71 1017.3
20260905134529 76 54 0.9 2.6 0.00 0.00 0.00 71 1017.2
20260905134024 76 54 0.9 2.6 0.00 0.00 0.00 71 1017.1
20260905133523 76 54 0.9 1.7 0.00 0.00 0.00 71 1017.2
20260905132514 75 54 0.0 1.7 0.00 0.00 0.00 74 1016.9
20260905132031 74 54 0.0 0.9 0.00 0.00 0.00 74 1016.9
20260905131526 74 54 0.0 1.7 0.00 0.00 0.00 75 1016.8
20260905131021 74 54 0.9 1.7 0.00 0.00 0.00 74 1016.7
20260905130518 74 54 0.9 1.7 0.00 0.00 0.00 74 1016.6
20260905130029 74 54 0.9 1.7 0.00 0.00 0.00 74 1016.6
20260905125531 74 54 0.9 1.7 0.00 0.00 0.00 73 1016.5
20260905125026 74 54 0.9 1.7 0.00 0.00 0.00 74 1016.4
20260905124521 74 54 0.0 0.9 0.00 0.00 0.00 73 1016.5
20260905124017 75 54 0.0 1.7 0.00 0.00 0.00 73 1016.4
20260905123531 74 54 0.9 1.7 0.00 0.00 0.00 74 1016.4
20260905123028 74 54 0.0 1.7 0.00 0.00 0.00 72 1016.5
20260905122527 75 54 0.0 1.7 0.00 0.00 0.00 72 1016.4
20260905122022 75 54 0.9 1.7 0.00 0.00 0.00 73 1016.3
20260905121517 75 54 0.9 1.7 0.00 0.00 0.00 72 1016.3
20260905121013 75 54 0.0 0.9 0.00 0.00 0.00 72 1016.3
20260905120528 74 54 0.0 1.7 0.00 0.00 0.00 72 1016.3
20260905120035 75 54 0.0 2.6 0.00 0.00 0.00 71 1016.3
20260905115515 75 54 0.9 2.6 0.00 0.00 0.00 70 1016.2
20260905115014 75 54 0.9 1.7 0.00 0.00 0.00 70 1016.3
20260905114530 75 54 0.0 1.7 0.00 0.00 0.00 70 1016.2
20260905114025 75 54 0.9 1.7 0.00 0.00 0.00 70 1016.3
20260905113522 75 54 0.9 1.7 0.00 0.00 0.00 71 1016.2
20260905113017 75 54 0.9 2.6 0.00 0.00 0.00 71 1016.3
20260905112513 76 54 0.9 2.6 0.00 0.00 0.00 70 1016.2
20260905112028 76 54 0.9 2.6 0.00 0.00 0.00 69 1016.2
20260905111525 76 54 0.9 2.6 0.00 0.00 0.00 69 1016.2
20260905111025 76 54 0.9 2.6 0.00 0.00 0.00 69 1016.3
20260905110521 76 54 1.7 3.5 0.00 0.00 0.00 69 1016.3
20260905110029 76 54 2.6 3.5 0.00 0.00 0.00 68 1016.2
20260905105529 76 54 1.7 2.6 0.00 0.00 0.00 69 1016.3
20260905105025 76 54 0.9 1.7 0.00 0.00 0.00 69 1016.2
20260905104521 76 54 0.9 1.7 0.00 0.00 0.00 69 1016.3
20260905104016 76 54 0.9 1.7 0.00 0.00 0.00 68 1016.2
20260905103515 76 54 0.9 1.7 0.00 0.00 0.00 68 1016.3
20260905103030 76 54 0.0 0.9 0.00 0.00 0.00 69 1016.2
20260905102526 76 54 0.0 1.7 0.00 0.00 0.00 68 1016.2
20260905102022 77 54 0.0 1.7 0.00 0.00 0.00 67 1016.3
20260905101517 77 54 0.9 1.7 0.00 0.00 0.00 67 1016.3
20260905101031 77 54 0.9 1.7 0.00 0.00 0.00 67 1016.2
20260905100527 77 54 0.9 1.7 0.00 0.00 0.00 67 1016.1
20260905100039 77 54 0.0 0.9 0.00 0.00 0.00 67 1016.0
20260905095519 77 54 0.0 0.9 0.00 0.00 0.00 67 1016.2
20260905095015 77 54 0.0 0.9 0.00 0.00 0.00 67 1016.1
20260905094529 77 54 0.0 0.9 0.00 0.00 0.00 67 1016.2
20260905094023 77 54 0.0 1.7 0.00 0.00 0.00 66 1016.2
20260905093517 77 54 0.0 1.7 0.00 0.00 0.00 66 1016.2
20260905093012 77 54 0.9 2.6 0.00 0.00 0.00 65 1016.0
20260905092527 78 54 0.9 2.6 0.00 0.00 0.00 65 1016.1
20260905092026 78 54 0.9 2.6 0.00 0.00 0.00 65 1016.2
20260905091520 78 54 0.9 1.7 0.00 0.00 0.00 65 1016.2
20260905091014 78 54 0.0 0.9 0.00 0.00 0.00 65 1016.2
20260905090528 77 54 0.0 1.7 0.00 0.00 0.00 67 1016.1
20260905090034 78 54 0.9 1.7 0.00 0.00 0.00 66 1016.2
20260905085514 78 54 0.9 1.7 0.00 0.00 0.00 65 1016.2
20260905085029 78 54 0.9 1.7 0.00 0.00 0.00 65 1016.2
20260905084527 78 54 0.0 0.9 0.00 0.00 0.00 65 1016.2
20260905084022 78 54 0.0 1.7 0.00 0.00 0.00 65 1016.2
20260905083516 78 54 0.9 1.7 0.00 0.00 0.00 64 1016.3
20260905083031 78 54 0.9 0.9 0.00 0.00 0.00 63 1016.2
20260905082526 78 54 0.0 1.7 0.00 0.00 0.00 63 1016.3
20260905082021 79 54 1.7 1.7 0.00 0.00 0.00 62 1016.3
20260905081516 79 54 0.0 0.0 0.00 0.00 0.00 60 1016.4
20260905081015 79 54 0.0 0.0 0.00 0.00 0.00 60 1016.4
20260905080530 80 54 0.0 0.0 0.00 0.00 0.00 60 1016.5
20260905080036 80 54 0.0 1.7 0.00 0.00 0.00 59 1016.5
20260905075516 80 54 0.0 2.6 0.00 0.00 0.00 58 1016.5
20260905075030 81 54 0.9 2.6 0.00 0.00 0.00 57 1016.5
20260905074524 81 54 1.7 1.7 0.00 0.00 0.00 58 1016.5
20260905074018 80 54 0.9 1.7 0.00 0.00 0.00 58 1016.5
20260905073512 80 54 0.0 1.7 0.00 0.00 0.00 59 1016.5
20260905073031 80 54 0.0 1.7 0.00 0.00 0.00 58 1016.4
20260905072524 81 54 0.9 1.7 0.00 0.00 0.00 57 1016.4
20260905072019 81 54 0.9 1.7 0.00 0.00 0.00 57 1016.3
20260905071514 81 54 0.0 1.7 0.00 0.00 0.00 56 1016.3
20260905071029 81 54 0.0 2.6 0.00 0.00 0.00 56 1016.3
20260905070523 82 54 1.7 3.5 0.00 0.00 0.00 56 1016.3
20260905070030 81 54 1.7 3.5 0.00 0.00 0.00 56 1016.3
20260905065514 82 54 0.9 2.6 0.00 0.00 0.00 57 1016.3
20260905065029 82 54 0.9 1.7 0.00 0.00 0.00 56 1016.2
20260905064523 82 54 0.9 0.9 0.00 0.00 0.00 56 1016.2
20260905064017 82 54 0.0 3.5 0.00 0.00 0.00 55 1016.2
20260905063511 83 54 1.7 3.5 0.00 0.00 0.00 55 1016.0
20260905063026 83 57 1.7 2.6 0.00 0.00 0.00 55 1016.2
20260905062520 83 57 0.9 3.5 0.00 0.00 0.00 53 1016.1
20260905062015 83 57 1.7 3.5 0.00 0.00 0.00 54 1016.1
20260905061513 84 56 1.7 3.5 0.00 0.00 0.00 53 1016.1
20260905061029 84 56 1.7 3.5 0.00 0.00 0.00 53 1016.0
20260905060523 83 56 1.7 1.7 0.00 0.00 0.00 54 1016.1
20260905060029 84 56 0.0 4.3 0.00 0.00 0.00 53 1016.0
20260905055529 84 56 0.9 4.3 0.00 0.00 0.00 52 1015.9
20260905055023 84 53 1.7 6.1 0.00 0.00 0.00 52 1015.9
20260905054517 85 52 2.6 6.1 0.00 0.00 0.00 50 1015.9
20260905054016 85 51 2.6 6.1 0.00 0.00 0.00 50 1016.1
20260905053530 85 35 3.5 4.3 0.00 0.00 0.00 47 1015.9
20260905053024 85 269 1.7 3.5 0.00 0.00 0.00 47 1015.9
20260905052518 85 269 1.7 3.5 0.00 0.00 0.00 47 1015.8
20260905052012 85 269 0.9 1.7 0.00 0.00 0.00 46 1015.8
20260905051526 85 269 0.9 1.7 0.00 0.00 0.00 46 1015.6
20260905051020 86 269 0.9 3.5 0.00 0.00 0.00 46 1015.5
20260905050515 86 269 0.9 3.5 0.00 0.00 0.00 45 1015.6
20260905050027 86 269 0.9 5.2 0.00 0.00 0.00 44 1015.5
20260905045526 87 269 1.7 5.2 0.00 0.00 0.00 44 1015.5
20260905045021 87 277 1.7 5.2 0.00 0.00 0.00 43 1015.4
20260905044514 87 261 1.7 6.1 0.00 0.00 0.00 43 1015.5
20260905044029 87 260 1.7 6.1 0.00 0.00 0.00 43 1015.4
20260905043523 87 259 2.6 5.2 0.00 0.00 0.00 43 1015.4
20260905043018 87 240 2.6 6.1 0.00 0.00 0.00 42 1015.4
20260905042517 87 238 2.6 4.3 0.00 0.00 0.00 42 1015.4
20260905042011 87 236 2.6 4.3 0.00 0.00 0.00 42 1015.4
20260905041525 87 233 1.7 3.5 0.00 0.00 0.00 42 1015.6
20260905041019 88 233 1.7 3.5 0.00 0.00 0.00 41 1015.6
20260905040513 88 232 1.7 5.2 0.00 0.00 0.00 40 1015.5
20260905040039 88 231 2.6 5.2 0.00 0.00 0.00 40 1015.6
20260905035518 88 231 2.6 4.3 0.00 0.00 0.00 40 1015.5
20260905035012 88 236 1.7 4.3 0.00 0.00 0.00 40 1015.4
20260905034530 88 236 2.6 4.3 0.00 0.00 0.00 40 1015.4
20260905034025 88 236 1.7 4.3 0.00 0.00 0.00 40 1015.4
20260905033520 88 236 1.7 5.2 0.00 0.00 0.00 40 1015.3
20260905033014 88 248 1.7 7.0 0.00 0.00 0.00 39 1015.3
20260905032529 88 239 3.5 7.0 0.00 0.00 0.00 39 1015.2
20260905032023 88 294 2.6 4.3 0.00 0.00 0.00 39 1015.1
20260905031517 88 296 0.9 2.6 0.00 0.00 0.00 40 1015.0
20260905031015 88 296 0.9 3.5 0.00 0.00 0.00 40 1014.9
20260905030529 88 296 1.7 3.5 0.00 0.00 0.00 40 1014.9
20260905030036 88 296 1.7 2.6 0.00 0.00 0.00 40 1014.9
20260905025516 88 296 1.7 3.5 0.00 0.00 0.00 39 1014.7
20260905025030 88 296 0.9 3.5 0.00 0.00 0.00 39 1014.8
20260905024525 88 298 0.9 3.5 0.00 0.00 0.00 39 1014.6
20260905024018 89 298 1.7 2.6 0.00 0.00 0.00 39 1014.6
20260905023513 89 298 0.9 1.7 0.00 0.00 0.00 39 1014.5
20260905023032 89 298 0.0 2.6 0.00 0.00 0.00 39 1014.5
20260905022526 89 298 0.0 3.5 0.00 0.00 0.00 39 1014.4
20260905022022 89 298 1.7 3.5 0.00 0.00 0.00 39 1014.4
20260905021516 89 298 1.7 2.6 0.00 0.00 0.00 40 1014.5
20260905021032 89 298 0.9 1.7 0.00 0.00 0.00 38 1014.4
20260905020526 90 298 0.0 1.7 0.00 0.00 0.00 38 1014.4
20260905020032 90 298 0.9 1.7 0.00 0.00 0.00 37 1014.3
20260905015517 90 298 0.9 2.6 0.00 0.00 0.00 37 1014.2
20260905015032 90 298 0.9 3.5 0.00 0.00 0.00 36 1014.2
20260905014525 91 298 1.7 3.5 0.00 0.00 0.00 34 1014.3
20260905014020 91 298 1.7 3.5 0.00 0.00 0.00 35 1014.1
20260905013515 91 299 1.7 3.5 0.00 0.00 0.00 35 1014.1
20260905013029 91 299 1.7 4.3 0.00 0.00 0.00 33 1014.2
20260905012524 92 300 1.7 7.0 0.00 0.00 0.00 33 1014.2
20260905012018 92 296 2.6 7.0 0.00 0.00 0.00 32 1014.1
20260905011516 92 287 1.7 5.2 0.00 0.00 0.00 31 1014.2
20260905011030 92 281 1.7 5.2 0.00 0.00 0.00 33 1014.1
20260905010524 92 281 1.7 7.8 0.00 0.00 0.00 33 1013.9
20260905010031 93 281 1.7 7.8 0.00 0.00 0.00 31 1014.0
20260905005531 93 285 3.5 7.8 0.00 0.00 0.00 29 1014.0
20260905005024 93 303 1.7 8.7 0.00 0.00 0.00 29 1014.0
20260905004518 94 304 1.7 6.1 0.00 0.00 0.00 29 1013.9
20260905004016 94 319 1.7 4.3 0.00 0.00 0.00 29 1013.9
20260905003531 94 293 0.9 3.5 0.00 0.00 0.00 31 1013.9
20260905003025 94 293 1.7 6.1 0.00 0.00 0.00 30 1014.0
20260905002519 95 287 1.7 7.8 0.00 0.00 0.00 30 1013.8
20260905002013 95 295 2.6 7.8 0.00 0.00 0.00 29 1013.8
20260905001528 95 295 2.6 7.8 0.00 0.00 0.00 30 1013.8
20260905001022 95 298 2.6 7.0 0.00 0.00 0.00 30 1013.7
20260905000516 95 286 2.6 7.0 0.00 0.00 0.00 30 1013.7
20260905000046 96 306 1.7 7.0 0.00 0.00 0.00 30 1013.7
20260904235527 96 285 2.6 7.8 0.00 0.00 0.00 29 1013.8
20260904235021 96 290 3.5 9.6 0.00 0.00 0.00 30 1013.6
20260904234516 96 283 4.3 9.6 0.00 0.00 0.00 30 1013.6
20260904234032 96 320 1.7 6.1 0.00 0.00 0.00 31 1013.8
20260904233527 96 322 1.7 6.1 0.00 0.00 0.00 30 1013.8
20260904233022 96 294 2.6 7.8 0.00 0.00 0.00 30 1013.9
20260904232521 95 324 1.7 7.8 0.00 0.00 0.00 31 1014.0
20260904232016 94 25 2.6 5.2 0.00 0.00 0.00 32 1013.8
20260904231531 95 310 0.9 4.3 0.00 0.00 0.00 33 1013.9
20260904231027 95 309 1.7 6.1 0.00 0.00 0.00 32 1014.0
20260904230522 95 304 1.7 6.1 0.00 0.00 0.00 32 1014.0
20260904230030 95 292 2.6 8.7 0.00 0.00 0.00 32 1014.0
20260904225531 96 264 4.3 8.7 0.00 0.00 0.00 31 1013.9
20260904225025 96 353 3.5 7.0 0.00 0.00 0.00 31 1014.0
20260904224525 96 343 1.7 7.0 0.00 0.00 0.00 30 1014.1
20260904224019 97 282 1.7 7.0 0.00 0.00 0.00 30 1014.1
20260904223514 95 288 1.7 8.7 0.00 0.00 0.00 31 1014.1
20260904223028 97 289 4.3 8.7 0.00 0.00 0.00 29 1014.2
20260904222523 96 214 4.3 7.8 0.00 0.00 0.00 29 1014.2
20260904222018 95 256 1.7 7.8 0.00 0.00 0.00 29 1014.1
20260904221513 97 255 2.6 8.7 0.00 0.00 0.00 28 1014.3
20260904221030 97 297 3.5 8.7 0.00 0.00 0.00 29 1014.4
20260904220523 97 277 4.3 7.8 0.00 0.00 0.00 29 1014.4
20260904220029 96 281 2.6 6.1 0.00 0.00 0.00 29 1014.4
20260904215527 97 313 2.6 9.6 0.00 0.00 0.00 27 1014.4
20260904215021 95 283 5.2 9.6 0.00 0.00 0.00 29 1014.4
20260904214515 96 282 2.6 3.5 0.00 0.00 0.00 30 1014.5
20260904214029 95 355 0.9 3.5 0.00 0.00 0.00 34 1014.7
20260904213523 93 355 1.7 3.5 0.00 0.00 0.00 36 1014.8
20260904213022 92 355 0.9 4.3 0.00 0.00 0.00 36 1014.7
20260904212516 92 355 1.7 4.3 0.00 0.00 0.00 37 1014.8
20260904212031 93 355 1.7 6.1 0.00 0.00 0.00 36 1014.8
20260904211525 93 355 1.7 5.2 0.00 0.00 0.00 37 1014.8
20260904211019 94 33 2.6 7.8 0.00 0.00 0.00 38 1014.9
20260904210513 92 15 0.9 4.3 0.00 0.00 0.00 39 1015.0
20260904210039 92 15 1.7 6.1 0.00 0.00 0.00 39 1015.2
20260904205523 94 10 2.6 6.1 0.00 0.00 0.00 38 1015.0
20260904205017 93 15 2.6 5.2 0.00 0.00 0.00 39 1015.0
20260904204531 93 11 0.9 7.0 0.00 0.00 0.00 39 1015.1
20260904204025 93 10 2.6 7.0 0.00 0.00 0.00 37 1015.2
20260904203519 93 11 1.7 8.7 0.00 0.00 0.00 39 1015.2
20260904203014 94 347 3.5 8.7 0.00 0.00 0.00 37 1015.3
20260904202528 95 355 1.7 5.2 0.00 0.00 0.00 37 1015.4
20260904202022 95 2 2.6 7.0 0.00 0.00 0.00 35 1015.5
20260904201521 97 348 1.7 7.0 0.00 0.00 0.00 35 1015.6
20260904201015 96 297 2.6 7.0 0.00 0.00 0.00 36 1015.7
20260904200529 95 287 1.7 12.2 0.00 0.00 0.00 36 1015.8